Time,TemperatureF,DewpointF,PressureIn,WindDirection,WindDirectionDegrees,WindSpeedMPH,WindSpeedGustMPH,Humidity,HourlyPrecipIn,Conditions,Clouds,dailyrainin,SoftwareType,DateUTC
2013-11-23 00:00:00,26.8,16.2,30.37,NNW,346,9.0,13.0,64,0.00,,,0.00,Wunderground v.1.15,2013-11-23 06:00:00,
2013-11-23 00:05:00,26.6,16.1,30.37,NNW,329,10.0,13.0,64,0.00,,,0.00,Wunderground v.1.15,2013-11-23 06:05:00,
2013-11-23 00:10:00,26.5,16.0,30.36,NNW,338,9.0,9.0,64,0.00,,,0.00,Wunderground v.1.15,2013-11-23 06:10:00,
2013-11-23 00:15:00,26.4,16.2,30.37,NNW,341,7.0,9.0,65,0.00,,,0.00,Wunderground v.1.15,2013-11-23 06:15:00,
2013-11-23 00:20:00,26.3,16.1,30.37,NW,306,7.0,7.0,65,0.00,,,0.00,Wunderground v.1.15,2013-11-23 06:20:00,
2013-11-23 00:25:00,26.2,16.0,30.37,NNW,336,8.0,8.0,65,0.00,,,0.00,Wunderground v.1.15,2013-11-23 06:25:00,
2013-11-23 00:35:00,25.8,15.6,30.37,NNW,331,11.0,13.0,65,0.00,,,0.00,Wunderground v.1.15,2013-11-23 06:35:00,
2013-11-23 00:40:00,25.1,15.3,30.37,North,355,13.0,13.0,66,0.00,,,0.00,Wunderground v.1.15,2013-11-23 06:40:00,
2013-11-23 00:45:00,25.0,15.2,30.38,North,349,12.0,13.0,66,0.00,,,0.00,Wunderground v.1.15,2013-11-23 06:45:00,
2013-11-23 00:50:00,24.9,15.1,30.38,NNW,331,10.0,13.0,66,0.00,,,0.00,Wunderground v.1.15,2013-11-23 06:50:00,
2013-11-23 00:55:00,25.0,14.5,30.38,North,355,10.0,13.0,64,0.00,,,0.00,Wunderground v.1.15,2013-11-23 06:55:00,
2013-11-23 01:00:00,25.1,14.3,30.38,NNE,17,10.0,10.0,63,0.00,,,0.00,Wunderground v.1.15,2013-11-23 07:00:00,
2013-11-23 01:05:00,25.0,14.2,30.38,North,5,10.0,11.0,63,0.00,,,0.00,Wunderground v.1.15,2013-11-23 07:05:00,
2013-11-23 01:10:00,24.9,13.7,30.38,NNW,348,11.0,11.0,62,0.00,,,0.00,Wunderground v.1.15,2013-11-23 07:10:00,
2013-11-23 01:15:00,24.8,13.6,30.39,NNW,346,10.0,11.0,62,0.00,,,0.00,Wunderground v.1.15,2013-11-23 07:15:00,
2013-11-23 01:20:00,24.4,11.7,30.39,NNW,336,11.0,12.0,58,0.00,,,0.00,Wunderground v.1.15,2013-11-23 07:20:00,
2013-11-23 01:25:00,24.0,10.6,30.39,NW,316,12.0,12.0,56,0.00,,,0.00,Wunderground v.1.15,2013-11-23 07:25:00,
2013-11-23 01:30:00,23.8,10.0,30.39,NNW,335,10.0,11.0,55,0.00,,,0.00,Wunderground v.1.15,2013-11-23 07:30:00,
2013-11-23 01:35:00,23.6,9.4,30.39,NW,321,10.0,17.0,54,0.00,,,0.00,Wunderground v.1.15,2013-11-23 07:35:00,
2013-11-23 01:45:00,23.3,8.7,30.40,North,5,11.0,12.0,53,0.00,,,0.00,Wunderground v.1.15,2013-11-23 07:45:00,
2013-11-23 01:50:00,23.2,9.0,30.41,NNW,342,9.0,9.0,54,0.00,,,0.00,Wunderground v.1.15,2013-11-23 07:50:00,
2013-11-23 01:55:00,22.9,9.1,30.41,WNW,301,8.0,9.0,55,0.00,,,0.00,Wunderground v.1.15,2013-11-23 07:55:00,
2013-11-23 02:00:00,22.7,8.9,30.41,NW,317,9.0,9.0,55,0.00,,,0.00,Wunderground v.1.15,2013-11-23 08:00:00,
2013-11-23 02:05:00,22.7,9.3,30.41,NNW,336,8.0,9.0,56,0.00,,,0.00,Wunderground v.1.15,2013-11-23 08:05:00,
2013-11-23 02:10:00,22.5,9.1,30.41,NNW,334,8.0,9.0,56,0.00,,,0.00,Wunderground v.1.15,2013-11-23 08:10:00,
2013-11-23 02:15:00,22.4,9.4,30.42,NNW,331,9.0,9.0,57,0.00,,,0.00,Wunderground v.1.15,2013-11-23 08:15:00,
2013-11-23 02:20:00,22.2,9.3,30.42,NNW,342,9.0,10.0,57,0.00,,,0.00,Wunderground v.1.15,2013-11-23 08:20:00,
2013-11-23 02:25:00,22.2,9.3,30.42,WNW,298,9.0,10.0,57,0.00,,,0.00,Wunderground v.1.15,2013-11-23 08:25:00,
2013-11-23 02:30:00,22.1,9.2,30.42,NW,307,9.0,9.0,57,0.00,,,0.00,Wunderground v.1.15,2013-11-23 08:30:00,
2013-11-23 02:35:00,22.0,9.5,30.42,WNW,303,10.0,10.0,58,0.00,,,0.00,Wunderground v.1.15,2013-11-23 08:35:00,
2013-11-23 02:40:00,21.9,9.4,30.42,North,360,9.0,9.0,58,0.00,,,0.00,Wunderground v.1.15,2013-11-23 08:40:00,
2013-11-23 02:45:00,21.8,9.7,30.42,NNW,347,8.0,9.0,59,0.00,,,0.00,Wunderground v.1.15,2013-11-23 08:45:00,
2013-11-23 02:55:00,21.6,9.8,30.42,NW,323,7.0,8.0,60,0.00,,,0.00,Wunderground v.1.15,2013-11-23 08:55:00,
2013-11-23 03:00:00,21.6,9.8,30.42,NW,315,7.0,7.0,60,0.00,,,0.00,Wunderground v.1.15,2013-11-23 09:00:00,
2013-11-23 03:05:00,21.5,9.7,30.42,NW,323,9.0,13.0,60,0.00,,,0.00,Wunderground v.1.15,2013-11-23 09:05:00,
2013-11-23 03:10:00,21.3,9.6,30.43,NW,309,10.0,10.0,60,0.00,,,0.00,Wunderground v.1.15,2013-11-23 09:10:00,
2013-11-23 03:15:00,21.2,9.1,30.43,WNW,300,10.0,15.0,59,0.00,,,0.00,Wunderground v.1.15,2013-11-23 09:15:00,
2013-11-23 03:20:00,21.1,8.6,30.43,NNW,328,12.0,12.0,58,0.00,,,0.00,Wunderground v.1.15,2013-11-23 09:20:00,
2013-11-23 03:30:00,21.0,8.9,30.43,NNW,346,10.0,10.0,59,0.00,,,0.00,Wunderground v.1.15,2013-11-23 09:30:00,
2013-11-23 03:35:00,20.9,8.8,30.43,WNW,289,10.0,10.0,59,0.00,,,0.00,Wunderground v.1.15,2013-11-23 09:35:00,
2013-11-23 03:40:00,20.8,9.1,30.43,NNW,327,8.0,10.0,60,0.00,,,0.00,Wunderground v.1.15,2013-11-23 09:40:00,
2013-11-23 03:45:00,20.7,9.4,30.44,North,9,8.0,10.0,61,0.00,,,0.00,Wunderground v.1.15,2013-11-23 09:45:00,
2013-11-23 03:50:00,20.7,9.0,30.44,WNW,301,11.0,11.0,60,0.00,,,0.00,Wunderground v.1.15,2013-11-23 09:50:00,
2013-11-23 03:55:00,20.6,9.3,30.44,WNW,300,10.0,11.0,61,0.00,,,0.00,Wunderground v.1.15,2013-11-23 09:55:00,
2013-11-23 04:00:00,20.4,9.1,30.45,NNW,329,7.0,9.0,61,0.00,,,0.00,Wunderground v.1.15,2013-11-23 10:00:00,
2013-11-23 04:05:00,20.2,8.9,30.45,NW,322,9.0,9.0,61,0.00,,,0.00,Wunderground v.1.15,2013-11-23 10:05:00,
2013-11-23 04:10:00,20.1,8.8,30.45,NNW,331,12.0,12.0,61,0.00,,,0.00,Wunderground v.1.15,2013-11-23 10:10:00,
2013-11-23 04:15:00,20.0,9.1,30.45,North,355,11.0,12.0,62,0.00,,,0.00,Wunderground v.1.15,2013-11-23 10:15:00,
2013-11-23 04:20:00,19.9,9.0,30.45,NNW,338,11.0,11.0,62,0.00,,,0.00,Wunderground v.1.15,2013-11-23 10:20:00,
2013-11-23 04:25:00,19.8,8.9,30.46,WNW,302,12.0,12.0,62,0.00,,,0.00,Wunderground v.1.15,2013-11-23 10:25:00,
2013-11-23 04:35:00,19.7,8.8,30.46,NW,315,10.0,11.0,62,0.00,,,0.00,Wunderground v.1.15,2013-11-23 10:35:00,
2013-11-23 04:40:00,19.6,8.7,30.46,NNW,333,9.0,9.0,62,0.00,,,0.00,Wunderground v.1.15,2013-11-23 10:40:00,
2013-11-23 04:45:00,19.5,8.6,30.46,NNW,327,8.0,9.0,62,0.00,,,0.00,Wunderground v.1.15,2013-11-23 10:45:00,
2013-11-23 04:50:00,19.4,8.8,30.46,NNW,331,9.0,9.0,63,0.00,,,0.00,Wunderground v.1.15,2013-11-23 10:50:00,
2013-11-23 04:55:00,19.4,8.8,30.46,NNW,329,10.0,10.0,63,0.00,,,0.00,Wunderground v.1.15,2013-11-23 10:55:00,
2013-11-23 05:00:00,19.4,8.8,30.47,NNW,346,11.0,18.0,63,0.00,,,0.00,Wunderground v.1.15,2013-11-23 11:00:00,
2013-11-23 05:05:00,19.3,8.8,30.47,NNW,339,11.0,18.0,63,0.00,,,0.00,Wunderground v.1.15,2013-11-23 11:05:00,
2013-11-23 05:10:00,19.3,9.1,30.47,NW,319,11.0,16.0,64,0.00,,,0.00,Wunderground v.1.15,2013-11-23 11:10:00,
2013-11-23 05:15:00,19.3,9.1,30.47,North,11,11.0,18.0,64,0.00,,,0.00,Wunderground v.1.15,2013-11-23 11:15:00,
2013-11-23 05:20:00,19.2,9.0,30.48,NNW,342,11.0,16.0,64,0.00,,,0.00,Wunderground v.1.15,2013-11-23 11:20:00,
2013-11-23 05:25:00,19.0,8.8,30.48,WNW,298,10.0,16.0,64,0.00,,,0.00,Wunderground v.1.15,2013-11-23 11:25:00,
2013-11-23 05:30:00,18.6,7.4,30.48,NNW,348,11.0,11.0,61,0.00,,,0.00,Wunderground v.1.15,2013-11-23 11:30:00,
2013-11-23 05:35:00,18.5,6.9,30.49,North,350,11.0,11.0,60,0.00,,,0.00,Wunderground v.1.15,2013-11-23 11:35:00,
2013-11-23 05:40:00,18.3,7.1,30.49,NW,316,10.0,10.0,61,0.00,,,0.00,Wunderground v.1.15,2013-11-23 11:40:00,
2013-11-23 05:45:00,18.2,6.3,30.50,NNW,348,12.0,12.0,59,0.00,,,0.00,Wunderground v.1.15,2013-11-23 11:45:00,
2013-11-23 05:50:00,18.0,4.5,30.50,NNW,340,14.0,18.0,55,0.00,,,0.00,Wunderground v.1.15,2013-11-23 11:50:00,
2013-11-23 05:55:00,17.9,4.4,30.50,NNW,333,14.0,18.0,55,0.00,,,0.00,Wunderground v.1.15,2013-11-23 11:55:00,
2013-11-23 06:00:00,17.7,4.2,30.50,NNW,337,14.0,14.0,55,0.00,,,0.00,Wunderground v.1.15,2013-11-23 12:00:00,
2013-11-23 06:05:00,17.5,4.1,30.50,North,355,12.0,14.0,55,0.00,,,0.00,Wunderground v.1.15,2013-11-23 12:05:00,
2013-11-23 06:10:00,17.2,4.2,30.51,NNW,340,10.0,10.0,56,0.00,,,0.00,Wunderground v.1.15,2013-11-23 12:10:00,
2013-11-23 06:15:00,17.1,4.5,30.51,North,360,11.0,11.0,57,0.00,,,0.00,Wunderground v.1.15,2013-11-23 12:15:00,
2013-11-23 06:20:00,17.0,4.4,30.52,NNW,335,10.0,10.0,57,0.00,,,0.00,Wunderground v.1.15,2013-11-23 12:20:00,
2013-11-23 06:25:00,16.8,4.2,30.52,North,9,10.0,10.0,57,0.00,,,0.00,Wunderground v.1.15,2013-11-23 12:25:00,
2013-11-23 06:30:00,16.5,3.9,30.52,NNW,340,10.0,12.0,57,0.00,,,0.00,Wunderground v.1.15,2013-11-23 12:30:00,
2013-11-23 06:35:00,16.3,4.1,30.52,NNW,337,10.0,16.0,58,0.00,,,0.00,Wunderground v.1.15,2013-11-23 12:35:00,
2013-11-23 06:40:00,16.2,4.0,30.52,North,355,11.0,11.0,58,0.00,,,0.00,Wunderground v.1.15,2013-11-23 12:40:00,
2013-11-23 06:45:00,16.1,4.3,30.52,NW,325,11.0,11.0,59,0.00,,,0.00,Wunderground v.1.15,2013-11-23 12:45:00,
2013-11-23 06:50:00,16.0,4.2,30.53,North,360,11.0,13.0,59,0.00,,,0.00,Wunderground v.1.15,2013-11-23 12:50:00,
2013-11-23 06:55:00,16.0,4.2,30.53,NNW,340,11.0,13.0,59,0.00,,,0.00,Wunderground v.1.15,2013-11-23 12:55:00,
2013-11-23 07:00:00,15.8,4.4,30.53,NNW,337,10.0,15.0,60,0.00,,,0.00,Wunderground v.1.15,2013-11-23 13:00:00,
2013-11-23 07:05:00,15.5,4.1,30.53,NNE,15,12.0,17.0,60,0.00,,,0.00,Wunderground v.1.15,2013-11-23 13:05:00,
2013-11-23 07:10:00,15.6,4.2,30.53,North,5,13.0,13.0,60,0.00,,,0.00,Wunderground v.1.15,2013-11-23 13:10:00,
2013-11-23 07:15:00,15.5,4.1,30.53,North,360,11.0,16.0,60,0.00,,,0.00,Wunderground v.1.15,2013-11-23 13:15:00,
2013-11-23 07:20:00,15.4,4.0,30.53,NNW,335,12.0,15.0,60,0.00,,,0.00,Wunderground v.1.15,2013-11-23 13:20:00,
2013-11-23 07:25:00,15.4,4.0,30.54,NNW,332,12.0,15.0,60,0.00,,,0.00,Wunderground v.1.15,2013-11-23 13:25:00,
2013-11-23 07:30:00,15.4,4.0,30.55,NNW,333,11.0,11.0,60,0.00,,,0.00,Wunderground v.1.15,2013-11-23 13:30:00,
2013-11-23 07:35:00,15.3,4.2,30.55,North,355,10.0,11.0,61,0.00,,,0.00,Wunderground v.1.15,2013-11-23 13:35:00,
2013-11-23 07:40:00,15.3,4.2,30.55,NNW,335,10.0,20.0,61,0.00,,,0.00,Wunderground v.1.15,2013-11-23 13:40:00,
2013-11-23 07:45:00,15.3,4.2,30.55,NE,38,12.0,20.0,61,0.00,,,0.00,Wunderground v.1.15,2013-11-23 13:45:00,
2013-11-23 07:50:00,15.3,4.2,30.55,NNW,346,11.0,11.0,61,0.00,,,0.00,Wunderground v.1.15,2013-11-23 13:50:00,
2013-11-23 08:00:00,15.6,4.5,30.56,North,360,11.0,13.0,61,0.00,,,0.00,Wunderground v.1.15,2013-11-23 14:00:00,
2013-11-23 08:05:00,15.4,4.0,30.56,NNW,332,11.0,13.0,60,0.00,,,0.00,Wunderground v.1.15,2013-11-23 14:05:00,
2013-11-23 08:10:00,15.5,4.1,30.56,NW,326,11.0,11.0,60,0.00,,,0.00,Wunderground v.1.15,2013-11-23 14:10:00,
2013-11-23 08:15:00,15.5,4.1,30.57,NNW,340,11.0,12.0,60,0.00,,,0.00,Wunderground v.1.15,2013-11-23 14:15:00,
2013-11-23 08:20:00,15.5,3.7,30.57,NNW,335,12.0,12.0,59,0.00,,,0.00,Wunderground v.1.15,2013-11-23 14:20:00,
2013-11-23 08:25:00,15.6,3.4,30.57,North,360,12.0,12.0,58,0.00,,,0.00,Wunderground v.1.15,2013-11-23 14:25:00,
2013-11-23 08:30:00,15.4,2.9,30.57,NNW,344,13.0,15.0,57,0.00,,,0.00,Wunderground v.1.15,2013-11-23 14:30:00,
2013-11-23 08:35:00,15.6,3.1,30.57,NNW,340,14.0,17.0,57,0.00,,,0.00,Wunderground v.1.15,2013-11-23 14:35:00,
2013-11-23 08:40:00,15.7,2.8,30.57,NNW,336,13.0,18.0,56,0.00,,,0.00,Wunderground v.1.15,2013-11-23 14:40:00,
2013-11-23 08:45:00,15.5,2.2,30.57,NW,304,13.0,18.0,55,0.00,,,0.00,Wunderground v.1.15,2013-11-23 14:45:00,
2013-11-23 08:50:00,15.6,2.3,30.58,NW,321,14.0,14.0,55,0.00,,,0.00,Wunderground v.1.15,2013-11-23 14:50:00,
2013-11-23 08:55:00,15.7,2.4,30.58,NW,324,14.0,14.0,55,0.00,,,0.00,Wunderground v.1.15,2013-11-23 14:55:00,
2013-11-23 09:05:00,15.7,2.4,30.58,NNW,338,13.0,14.0,55,0.00,,,0.00,Wunderground v.1.15,2013-11-23 15:05:00,
2013-11-23 09:10:00,15.7,2.4,30.59,NW,323,13.0,13.0,55,0.00,,,0.00,Wunderground v.1.15,2013-11-23 15:10:00,
2013-11-23 09:15:00,15.6,1.9,30.59,NW,323,15.0,16.0,54,0.00,,,0.00,Wunderground v.1.15,2013-11-23 15:15:00,
2013-11-23 09:20:00,15.8,2.1,30.59,NW,320,15.0,15.0,54,0.00,,,0.00,Wunderground v.1.15,2013-11-23 15:20:00,
2013-11-23 09:25:00,15.9,1.8,30.59,NNW,348,14.0,15.0,53,0.00,,,0.00,Wunderground v.1.15,2013-11-23 15:25:00,
2013-11-23 09:30:00,16.3,2.5,30.60,NW,310,14.0,16.0,54,0.00,,,0.00,Wunderground v.1.15,2013-11-23 15:30:00,
2013-11-23 09:35:00,16.3,2.1,30.60,North,349,13.0,16.0,53,0.00,,,0.00,Wunderground v.1.15,2013-11-23 15:35:00,
2013-11-23 09:40:00,16.3,2.1,30.60,NW,319,14.0,14.0,53,0.00,,,0.00,Wunderground v.1.15,2013-11-23 15:40:00,
2013-11-23 09:45:00,16.4,1.8,30.60,North,355,14.0,14.0,52,0.00,,,0.00,Wunderground v.1.15,2013-11-23 15:45:00,
2013-11-23 09:50:00,16.7,2.1,30.60,North,360,13.0,13.0,52,0.00,,,0.00,Wunderground v.1.15,2013-11-23 15:50:00,
2013-11-23 09:55:00,16.6,2.0,30.60,NNW,333,12.0,13.0,52,0.00,,,0.00,Wunderground v.1.15,2013-11-23 15:55:00,
2013-11-23 10:05:00,16.7,1.7,30.60,NW,319,13.0,14.0,51,0.00,,,0.00,Wunderground v.1.15,2013-11-23 16:05:00,
2013-11-23 10:10:00,17.0,2.0,30.60,NNE,28,13.0,13.0,51,0.00,,,0.00,Wunderground v.1.15,2013-11-23 16:10:00,
2013-11-23 10:15:00,17.1,2.1,30.61,NNW,327,13.0,13.0,51,0.00,,,0.00,Wunderground v.1.15,2013-11-23 16:15:00,
2013-11-23 10:20:00,17.1,2.1,30.61,NNW,336,13.0,13.0,51,0.00,,,0.00,Wunderground v.1.15,2013-11-23 16:20:00,
2013-11-23 10:25:00,17.3,1.8,30.61,NNW,337,13.0,15.0,50,0.00,,,0.00,Wunderground v.1.15,2013-11-23 16:25:00,
2013-11-23 10:30:00,17.3,1.8,30.61,NNW,327,13.0,16.0,50,0.00,,,0.00,Wunderground v.1.15,2013-11-23 16:30:00,
2013-11-23 10:35:00,17.2,2.1,30.61,NNW,344,14.0,16.0,51,0.00,,,0.00,Wunderground v.1.15,2013-11-23 16:35:00,
2013-11-23 10:40:00,17.7,3.0,30.60,NNW,347,12.0,12.0,52,0.00,,,0.00,Wunderground v.1.15,2013-11-23 16:40:00,
2013-11-23 10:45:00,17.8,2.3,30.61,NE,34,11.0,14.0,50,0.00,,,0.00,Wunderground v.1.15,2013-11-23 16:45:00,
2013-11-23 10:50:00,17.6,2.1,30.61,NNW,338,12.0,12.0,50,0.00,,,0.00,Wunderground v.1.15,2013-11-23 16:50:00,
2013-11-23 10:55:00,17.5,2.4,30.61,NNW,344,11.0,12.0,51,0.00,,,0.00,Wunderground v.1.15,2013-11-23 16:55:00,
2013-11-23 11:05:00,18.1,2.1,30.60,WNW,296,11.0,11.0,49,0.00,,,0.00,Wunderground v.1.15,2013-11-23 17:05:00,
2013-11-23 11:10:00,18.2,1.3,30.61,NNW,348,12.0,15.0,47,0.00,,,0.00,Wunderground v.1.15,2013-11-23 17:10:00,
2013-11-23 11:15:00,17.8,0.9,30.61,North,5,14.0,15.0,47,0.00,,,0.00,Wunderground v.1.15,2013-11-23 17:15:00,
2013-11-23 11:20:00,18.0,1.1,30.60,North,360,15.0,19.0,47,0.00,,,0.00,Wunderground v.1.15,2013-11-23 17:20:00,
2013-11-23 11:25:00,18.4,2.0,30.60,North,355,12.0,19.0,48,0.00,,,0.00,Wunderground v.1.15,2013-11-23 17:25:00,
2013-11-23 11:30:00,18.4,2.0,30.60,NW,324,11.0,12.0,48,0.00,,,0.00,Wunderground v.1.15,2013-11-23 17:30:00,
2013-11-23 11:35:00,18.3,2.3,30.60,NW,323,12.0,12.0,49,0.00,,,0.00,Wunderground v.1.15,2013-11-23 17:35:00,
2013-11-23 11:40:00,18.6,2.6,30.61,NNW,345,13.0,16.0,49,0.00,,,0.00,Wunderground v.1.15,2013-11-23 17:40:00,
2013-11-23 11:45:00,18.2,1.8,30.60,WNW,294,13.0,17.0,48,0.00,,,0.00,Wunderground v.1.15,2013-11-23 17:45:00,
2013-11-23 11:50:00,18.1,1.7,30.61,North,355,14.0,14.0,48,0.00,,,0.00,Wunderground v.1.15,2013-11-23 17:50:00,
2013-11-23 11:55:00,18.4,2.0,30.60,NW,326,12.0,14.0,48,0.00,,,0.00,Wunderground v.1.15,2013-11-23 17:55:00,
2013-11-23 12:00:00,18.6,2.1,30.60,NNW,347,12.0,12.0,48,0.00,,,0.00,Wunderground v.1.15,2013-11-23 18:00:00,
2013-11-23 12:05:00,18.9,2.0,30.61,North,349,12.0,15.0,47,0.00,,,0.00,Wunderground v.1.15,2013-11-23 18:05:00,
2013-11-23 12:10:00,18.9,1.5,30.60,NNW,332,12.0,15.0,46,0.00,,,0.00,Wunderground v.1.15,2013-11-23 18:10:00,
2013-11-23 12:15:00,18.5,1.6,30.61,NW,320,14.0,15.0,47,0.00,,,0.00,Wunderground v.1.15,2013-11-23 18:15:00,
2013-11-23 12:20:00,18.3,1.4,30.60,NNW,328,15.0,15.0,47,0.00,,,0.00,Wunderground v.1.15,2013-11-23 18:20:00,
2013-11-23 12:30:00,19.0,2.1,30.60,North,355,10.0,14.0,47,0.00,,,0.00,Wunderground v.1.15,2013-11-23 18:30:00,
2013-11-23 12:40:00,18.6,0.7,30.61,North,9,13.0,19.0,45,0.00,,,0.00,Wunderground v.1.15,2013-11-23 18:40:00,
2013-11-23 12:45:00,18.7,1.3,30.60,North,350,15.0,19.0,46,0.00,,,0.00,Wunderground v.1.15,2013-11-23 18:45:00,
2013-11-23 12:50:00,19.1,1.7,30.60,NNW,348,14.0,14.0,46,0.00,,,0.00,Wunderground v.1.15,2013-11-23 18:50:00,
2013-11-23 12:55:00,19.0,2.1,30.60,North,351,12.0,14.0,47,0.00,,,0.00,Wunderground v.1.15,2013-11-23 18:55:00,
2013-11-23 13:00:00,19.6,2.1,30.61,North,355,10.0,10.0,46,0.00,,,0.00,Wunderground v.1.15,2013-11-23 19:00:00,
2013-11-23 13:05:00,18.7,0.8,30.61,NNW,343,11.0,15.0,45,0.00,,,0.00,Wunderground v.1.15,2013-11-23 19:05:00,
2013-11-23 13:10:00,18.5,1.1,30.61,NW,306,12.0,12.0,46,0.00,,,0.00,Wunderground v.1.15,2013-11-23 19:10:00,
2013-11-23 13:15:00,18.8,1.4,30.61,NNW,346,11.0,12.0,46,0.00,,,0.00,Wunderground v.1.15,2013-11-23 19:15:00,
2013-11-23 13:20:00,18.7,2.2,30.61,NNW,342,10.0,10.0,48,0.00,,,0.00,Wunderground v.1.15,2013-11-23 19:20:00,
2013-11-23 13:25:00,18.8,2.3,30.61,NNW,332,10.0,10.0,48,0.00,,,0.00,Wunderground v.1.15,2013-11-23 19:25:00,
2013-11-23 13:35:00,19.1,1.7,30.61,NNW,339,13.0,13.0,46,0.00,,,0.00,Wunderground v.1.15,2013-11-23 19:35:00,
2013-11-23 13:40:00,18.6,1.2,30.61,NNW,340,12.0,12.0,46,0.00,,,0.00,Wunderground v.1.15,2013-11-23 19:40:00,
2013-11-23 13:45:00,18.9,1.5,30.61,NW,318,12.0,14.0,46,0.00,,,0.00,Wunderground v.1.15,2013-11-23 19:45:00,
2013-11-23 13:50:00,19.3,1.9,30.61,NW,315,11.0,14.0,46,0.00,,,0.00,Wunderground v.1.15,2013-11-23 19:50:00,
2013-11-23 13:55:00,19.4,1.0,30.61,NNW,348,11.0,14.0,44,0.00,,,0.00,Wunderground v.1.15,2013-11-23 19:55:00,
2013-11-23 14:00:00,19.3,0.4,30.61,NW,308,12.0,12.0,43,0.00,,,0.00,Wunderground v.1.15,2013-11-23 20:00:00,
2013-11-23 14:05:00,19.3,0.9,30.62,NW,321,12.0,12.0,44,0.00,,,0.00,Wunderground v.1.15,2013-11-23 20:05:00,
2013-11-23 14:10:00,19.1,0.7,30.62,North,5,13.0,13.0,44,0.00,,,0.00,Wunderground v.1.15,2013-11-23 20:10:00,
2013-11-23 14:15:00,19.2,0.8,30.61,NNW,345,12.0,13.0,44,0.00,,,0.00,Wunderground v.1.15,2013-11-23 20:15:00,
2013-11-23 14:20:00,19.4,1.0,30.61,NNW,341,10.0,14.0,44,0.00,,,0.00,Wunderground v.1.15,2013-11-23 20:20:00,
2013-11-23 14:25:00,19.4,0.5,30.61,NW,321,10.0,14.0,43,0.00,,,0.00,Wunderground v.1.15,2013-11-23 20:25:00,
2013-11-23 14:30:00,19.0,0.1,30.62,NW,309,13.0,13.0,43,0.00,,,0.00,Wunderground v.1.15,2013-11-23 20:30:00,
2013-11-23 14:35:00,19.0,0.6,30.62,NNW,327,12.0,13.0,44,0.00,,,0.00,Wunderground v.1.15,2013-11-23 20:35:00,
2013-11-23 14:40:00,19.2,0.8,30.62,NNW,346,11.0,11.0,44,0.00,,,0.00,Wunderground v.1.15,2013-11-23 20:40:00,
2013-11-23 14:45:00,19.0,0.6,30.62,NNW,348,12.0,12.0,44,0.00,,,0.00,Wunderground v.1.15,2013-11-23 20:45:00,
2013-11-23 14:50:00,19.1,0.7,30.62,North,349,12.0,12.0,44,0.00,,,0.00,Wunderground v.1.15,2013-11-23 20:50:00,
2013-11-23 14:55:00,18.9,0.5,30.62,NW,326,11.0,12.0,44,0.00,,,0.00,Wunderground v.1.15,2013-11-23 20:55:00,
2013-11-23 15:00:00,18.8,0.9,30.62,NNW,337,11.0,13.0,45,0.00,,,0.00,Wunderground v.1.15,2013-11-23 21:00:00,
2013-11-23 15:05:00,18.9,1.0,30.62,NNW,329,11.0,13.0,45,0.00,,,0.00,Wunderground v.1.15,2013-11-23 21:05:00,
2013-11-23 15:10:00,18.9,0.5,30.62,NNW,327,11.0,14.0,44,0.00,,,0.00,Wunderground v.1.15,2013-11-23 21:10:00,
2013-11-23 15:15:00,18.8,0.5,30.62,NNW,327,11.0,14.0,44,0.00,,,0.00,Wunderground v.1.15,2013-11-23 21:15:00,
2013-11-23 15:20:00,18.5,0.7,30.62,North,360,10.0,10.0,45,0.00,,,0.00,Wunderground v.1.15,2013-11-23 21:20:00,
2013-11-23 15:25:00,18.4,0.6,30.63,North,349,10.0,10.0,45,0.00,,,0.00,Wunderground v.1.15,2013-11-23 21:25:00,
2013-11-23 15:30:00,18.2,0.4,30.62,NW,321,11.0,11.0,45,0.00,,,0.00,Wunderground v.1.15,2013-11-23 21:30:00,
2013-11-23 15:35:00,18.0,0.7,30.63,NNW,344,12.0,13.0,46,0.00,,,0.00,Wunderground v.1.15,2013-11-23 21:35:00,
2013-11-23 15:40:00,18.0,0.7,30.63,NNW,329,12.0,12.0,46,0.00,,,0.00,Wunderground v.1.15,2013-11-23 21:40:00,
2013-11-23 15:45:00,17.9,0.6,30.64,NNW,344,11.0,12.0,46,0.00,,,0.00,Wunderground v.1.15,2013-11-23 21:45:00,
2013-11-23 15:50:00,17.8,0.5,30.63,NNW,344,10.0,10.0,46,0.00,,,0.00,Wunderground v.1.15,2013-11-23 21:50:00,
2013-11-23 15:55:00,17.6,0.8,30.64,NW,321,10.0,10.0,47,0.00,,,0.00,Wunderground v.1.15,2013-11-23 21:55:00,
2013-11-23 16:05:00,17.5,1.1,30.64,WNW,298,7.0,9.0,48,0.00,,,0.00,Wunderground v.1.15,2013-11-23 22:05:00,
2013-11-23 16:10:00,17.4,1.5,30.65,NNW,336,7.0,8.0,49,0.00,,,0.00,Wunderground v.1.15,2013-11-23 22:10:00,
2013-11-23 16:15:00,17.3,1.4,30.65,NW,314,8.0,8.0,49,0.00,,,0.00,Wunderground v.1.15,2013-11-23 22:15:00,
2013-11-23 16:25:00,17.0,0.7,30.65,WNW,303,7.0,11.0,48,0.00,,,0.00,Wunderground v.1.15,2013-11-23 22:25:00,
2013-11-23 16:30:00,16.9,1.0,30.66,NW,304,7.0,7.0,49,0.00,,,0.00,Wunderground v.1.15,2013-11-23 22:30:00,
2013-11-23 16:35:00,16.8,0.9,30.66,NW,305,7.0,7.0,49,0.00,,,0.00,Wunderground v.1.15,2013-11-23 22:35:00,
2013-11-23 16:40:00,16.8,0.9,30.66,NNW,331,7.0,7.0,49,0.00,,,0.00,Wunderground v.1.15,2013-11-23 22:40:00,
2013-11-23 16:45:00,16.6,1.2,30.66,NNW,329,7.0,7.0,50,0.00,,,0.00,Wunderground v.1.15,2013-11-23 22:45:00,
2013-11-23 16:50:00,16.5,1.1,30.66,NW,324,6.0,6.0,50,0.00,,,0.00,Wunderground v.1.15,2013-11-23 22:50:00,
2013-11-23 16:55:00,16.4,1.4,30.66,NNW,346,5.0,6.0,51,0.00,,,0.00,Wunderground v.1.15,2013-11-23 22:55:00,
2013-11-23 17:00:00,16.3,1.7,30.66,North,351,5.0,6.0,52,0.00,,,0.00,Wunderground v.1.15,2013-11-23 23:00:00,
2013-11-23 17:05:00,16.2,1.6,30.66,NNW,339,6.0,6.0,52,0.00,,,0.00,Wunderground v.1.15,2013-11-23 23:05:00,
2013-11-23 17:10:00,16.1,1.5,30.66,NW,320,6.0,8.0,52,0.00,,,0.00,Wunderground v.1.15,2013-11-23 23:10:00,
2013-11-23 17:15:00,15.9,1.4,30.66,North,5,8.0,13.0,52,0.00,,,0.00,Wunderground v.1.15,2013-11-23 23:15:00,
2013-11-23 17:20:00,15.9,1.4,30.67,NNW,328,9.0,12.0,52,0.00,,,0.00,Wunderground v.1.15,2013-11-23 23:20:00,
2013-11-23 17:25:00,15.8,1.7,30.67,NW,314,9.0,12.0,53,0.00,,,0.00,Wunderground v.1.15,2013-11-23 23:25:00,
2013-11-23 17:35:00,15.5,1.4,30.67,NW,325,8.0,13.0,53,0.00,,,0.00,Wunderground v.1.15,2013-11-23 23:35:00,
2013-11-23 17:40:00,15.5,1.8,30.67,NNW,328,8.0,8.0,54,0.00,,,0.00,Wunderground v.1.15,2013-11-23 23:40:00,
2013-11-23 17:45:00,15.4,1.7,30.67,NW,321,8.0,8.0,54,0.00,,,0.00,Wunderground v.1.15,2013-11-23 23:45:00,
2013-11-23 17:50:00,15.3,2.0,30.67,NW,319,6.0,7.0,55,0.00,,,0.00,Wunderground v.1.15,2013-11-23 23:50:00,
2013-11-23 17:55:00,15.2,1.9,30.67,NW,312,6.0,7.0,55,0.00,,,0.00,Wunderground v.1.15,2013-11-23 23:55:00,
2013-11-23 18:00:00,15.1,2.2,30.67,NNW,332,6.0,7.0,56,0.00,,,0.00,Wunderground v.1.15,2013-11-24 00:00:00,
2013-11-23 18:05:00,15.0,2.1,30.68,NNW,344,7.0,7.0,56,0.00,,,0.00,Wunderground v.1.15,2013-11-24 00:05:00,
2013-11-23 18:10:00,15.0,2.1,30.68,NW,317,7.0,7.0,56,0.00,,,0.00,Wunderground v.1.15,2013-11-24 00:10:00,
2013-11-23 18:15:00,15.0,2.5,30.68,North,360,7.0,7.0,57,0.00,,,0.00,Wunderground v.1.15,2013-11-24 00:15:00,
2013-11-23 18:20:00,15.0,2.5,30.68,NW,321,6.0,6.0,57,0.00,,,0.00,Wunderground v.1.15,2013-11-24 00:20:00,
2013-11-23 18:25:00,15.0,2.5,30.68,North,355,6.0,11.0,57,0.00,,,0.00,Wunderground v.1.15,2013-11-24 00:25:00,
2013-11-23 18:30:00,14.9,2.4,30.68,NW,323,6.0,9.0,57,0.00,,,0.00,Wunderground v.1.15,2013-11-24 00:30:00,
2013-11-23 18:35:00,14.9,2.4,30.68,WNW,302,7.0,9.0,57,0.00,,,0.00,Wunderground v.1.15,2013-11-24 00:35:00,
2013-11-23 18:40:00,14.8,1.9,30.68,NW,313,7.0,7.0,56,0.00,,,0.00,Wunderground v.1.15,2013-11-24 00:40:00,
2013-11-23 18:45:00,14.7,1.8,30.68,NW,316,7.0,7.0,56,0.00,,,0.00,Wunderground v.1.15,2013-11-24 00:45:00,
2013-11-23 18:50:00,14.6,2.1,30.68,WNW,300,6.0,6.0,57,0.00,,,0.00,Wunderground v.1.15,2013-11-24 00:50:00,
2013-11-23 18:55:00,14.6,2.1,30.69,North,360,5.0,6.0,57,0.00,,,0.00,Wunderground v.1.15,2013-11-24 00:55:00,
2013-11-23 19:00:00,14.5,2.0,30.68,WNW,289,5.0,5.0,57,0.00,,,0.00,Wunderground v.1.15,2013-11-24 01:00:00,
2013-11-23 19:05:00,14.5,2.0,30.68,WNW,300,5.0,5.0,57,0.00,,,0.00,Wunderground v.1.15,2013-11-24 01:05:00,
2013-11-23 19:10:00,14.4,1.9,30.68,NW,317,4.0,4.0,57,0.00,,,0.00,Wunderground v.1.15,2013-11-24 01:10:00,
2013-11-23 19:15:00,14.3,1.8,30.68,WNW,301,3.0,4.0,57,0.00,,,0.00,Wunderground v.1.15,2013-11-24 01:15:00,
2013-11-23 19:20:00,14.2,1.7,30.68,WNW,298,3.0,4.0,57,0.00,,,0.00,Wunderground v.1.15,2013-11-24 01:20:00,
2013-11-23 19:25:00,14.1,2.0,30.68,NW,318,3.0,4.0,58,0.00,,,0.00,Wunderground v.1.15,2013-11-24 01:25:00,
2013-11-23 19:30:00,14.1,2.0,30.68,NW,309,3.0,4.0,58,0.00,,,0.00,Wunderground v.1.15,2013-11-24 01:30:00,
2013-11-23 19:35:00,14.0,1.9,30.68,WNW,302,3.0,4.0,58,0.00,,,0.00,Wunderground v.1.15,2013-11-24 01:35:00,
2013-11-23 19:40:00,14.0,1.9,30.68,WNW,293,3.0,3.0,58,0.00,,,0.00,Wunderground v.1.15,2013-11-24 01:40:00,
2013-11-23 19:45:00,13.9,1.8,30.68,West,281,3.0,4.0,58,0.00,,,0.00,Wunderground v.1.15,2013-11-24 01:45:00,
2013-11-23 19:50:00,13.8,2.1,30.68,NW,309,3.0,4.0,59,0.00,,,0.00,Wunderground v.1.15,2013-11-24 01:50:00,
2013-11-23 19:55:00,13.7,2.0,30.68,NW,321,3.0,5.0,59,0.00,,,0.00,Wunderground v.1.15,2013-11-24 01:55:00,
2013-11-23 20:05:00,13.6,2.3,30.67,WNW,287,3.0,4.0,60,0.00,,,0.00,Wunderground v.1.15,2013-11-24 02:05:00,
2013-11-23 20:10:00,13.5,2.2,30.67,WNW,286,2.0,4.0,60,0.00,,,0.00,Wunderground v.1.15,2013-11-24 02:10:00,
2013-11-23 20:15:00,13.4,2.4,30.67,WNW,282,2.0,4.0,61,0.00,,,0.00,Wunderground v.1.15,2013-11-24 02:15:00,
2013-11-23 20:20:00,13.3,2.7,30.67,West,273,2.0,4.0,62,0.00,,,0.00,Wunderground v.1.15,2013-11-24 02:20:00,
2013-11-23 20:25:00,13.2,2.6,30.67,WNW,290,2.0,4.0,62,0.00,,,0.00,Wunderground v.1.15,2013-11-24 02:25:00,
2013-11-23 20:30:00,13.2,2.6,30.67,West,265,2.0,4.0,62,0.00,,,0.00,Wunderground v.1.15,2013-11-24 02:30:00,
2013-11-23 20:35:00,13.1,2.9,30.67,West,271,3.0,6.0,63,0.00,,,0.00,Wunderground v.1.15,2013-11-24 02:35:00,
2013-11-23 20:40:00,13.3,3.0,30.68,WNW,285,4.0,6.0,63,0.00,,,0.00,Wunderground v.1.15,2013-11-24 02:40:00,
2013-11-23 20:45:00,13.4,3.1,30.67,WNW,283,5.0,6.0,63,0.00,,,0.00,Wunderground v.1.15,2013-11-24 02:45:00,
2013-11-23 20:50:00,13.4,3.1,30.67,WNW,296,4.0,5.0,63,0.00,,,0.00,Wunderground v.1.15,2013-11-24 02:50:00,
2013-11-23 20:55:00,13.4,3.1,30.67,WNW,286,4.0,5.0,63,0.00,,,0.00,Wunderground v.1.15,2013-11-24 02:55:00,
2013-11-23 21:00:00,13.2,3.3,30.67,WNW,298,3.0,4.0,64,0.00,,,0.00,Wunderground v.1.15,2013-11-24 03:00:00,
2013-11-23 21:05:00,13.1,3.2,30.67,West,280,3.0,4.0,64,0.00,,,0.00,Wunderground v.1.15,2013-11-24 03:05:00,
2013-11-23 21:10:00,13.1,3.5,30.67,WNW,286,3.0,3.0,65,0.00,,,0.00,Wunderground v.1.15,2013-11-24 03:10:00,
2013-11-23 21:15:00,13.0,3.4,30.67,West,271,3.0,4.0,65,0.00,,,0.00,Wunderground v.1.15,2013-11-24 03:15:00,
2013-11-23 21:20:00,13.0,3.4,30.67,West,277,3.0,4.0,65,0.00,,,0.00,Wunderground v.1.15,2013-11-24 03:20:00,
2013-11-23 21:25:00,12.9,3.3,30.67,West,264,3.0,4.0,65,0.00,,,0.00,Wunderground v.1.15,2013-11-24 03:25:00,
2013-11-23 21:30:00,13.0,3.4,30.66,WNW,284,3.0,4.0,65,0.00,,,0.00,Wunderground v.1.15,2013-11-24 03:30:00,
2013-11-23 21:35:00,13.0,3.4,30.66,West,276,3.0,4.0,65,0.00,,,0.00,Wunderground v.1.15,2013-11-24 03:35:00,
2013-11-23 21:40:00,13.0,3.4,30.66,West,271,3.0,5.0,65,0.00,,,0.00,Wunderground v.1.15,2013-11-24 03:40:00,
2013-11-23 21:45:00,13.0,3.4,30.66,NW,309,4.0,6.0,65,0.00,,,0.00,Wunderground v.1.15,2013-11-24 03:45:00,
2013-11-23 21:55:00,13.0,3.1,30.66,WNW,285,4.0,4.0,64,0.00,,,0.00,Wunderground v.1.15,2013-11-24 03:55:00,
2013-11-23 22:00:00,13.0,3.1,30.66,West,273,4.0,4.0,64,0.00,,,0.00,Wunderground v.1.15,2013-11-24 04:00:00,
2013-11-23 22:10:00,13.1,3.2,30.67,NW,308,4.0,6.0,64,0.00,,,0.00,Wunderground v.1.15,2013-11-24 04:10:00,
2013-11-23 22:15:00,13.1,2.9,30.67,WNW,289,4.0,6.0,63,0.00,,,0.00,Wunderground v.1.15,2013-11-24 04:15:00,
2013-11-23 22:20:00,13.1,2.9,30.66,WNW,291,4.0,7.0,63,0.00,,,0.00,Wunderground v.1.15,2013-11-24 04:20:00,
2013-11-23 22:25:00,13.1,2.9,30.66,WNW,286,5.0,7.0,63,0.00,,,0.00,Wunderground v.1.15,2013-11-24 04:25:00,
2013-11-23 22:30:00,13.0,2.8,30.67,WNW,284,5.0,5.0,63,0.00,,,0.00,Wunderground v.1.15,2013-11-24 04:30:00,
2013-11-23 22:35:00,13.0,2.8,30.67,West,275,4.0,5.0,63,0.00,,,0.00,Wunderground v.1.15,2013-11-24 04:35:00,
2013-11-23 22:40:00,12.9,3.0,30.66,WNW,290,4.0,4.0,64,0.00,,,0.00,Wunderground v.1.15,2013-11-24 04:40:00,
2013-11-23 22:45:00,12.9,3.0,30.66,NW,305,4.0,4.0,64,0.00,,,0.00,Wunderground v.1.15,2013-11-24 04:45:00,
2013-11-23 22:50:00,12.8,2.9,30.66,WNW,290,4.0,4.0,64,0.00,,,0.00,Wunderground v.1.15,2013-11-24 04:50:00,
2013-11-23 22:55:00,12.7,2.8,30.66,WNW,290,4.0,4.0,64,0.00,,,0.00,Wunderground v.1.15,2013-11-24 04:55:00,
2013-11-23 23:00:00,12.7,2.8,30.66,NW,306,4.0,4.0,64,0.00,,,0.00,Wunderground v.1.15,2013-11-24 05:00:00,
2013-11-23 23:05:00,12.6,3.1,30.66,West,267,3.0,4.0,65,0.00,,,0.00,Wunderground v.1.15,2013-11-24 05:05:00,
2013-11-23 23:10:00,12.6,3.1,30.67,NW,306,3.0,5.0,65,0.00,,,0.00,Wunderground v.1.15,2013-11-24 05:10:00,
2013-11-23 23:15:00,12.5,3.0,30.66,West,279,3.0,5.0,65,0.00,,,0.00,Wunderground v.1.15,2013-11-24 05:15:00,
2013-11-23 23:20:00,12.5,3.3,30.66,WNW,290,4.0,4.0,66,0.00,,,0.00,Wunderground v.1.15,2013-11-24 05:20:00,
2013-11-23 23:25:00,12.5,3.3,30.66,West,275,4.0,4.0,66,0.00,,,0.00,Wunderground v.1.15,2013-11-24 05:25:00,
2013-11-23 23:30:00,12.4,3.2,30.66,West,280,3.0,4.0,66,0.00,,,0.00,Wunderground v.1.15,2013-11-24 05:30:00,
2013-11-23 23:35:00,12.3,3.1,30.66,WNW,301,3.0,4.0,66,0.00,,,0.00,Wunderground v.1.15,2013-11-24 05:35:00,
2013-11-23 23:40:00,12.2,3.3,30.66,West,277,2.0,2.0,67,0.00,,,0.00,Wunderground v.1.15,2013-11-24 05:40:00,
2013-11-23 23:45:00,12.1,3.2,30.66,WNW,291,2.0,3.0,67,0.00,,,0.00,Wunderground v.1.15,2013-11-24 05:45:00,
2013-11-23 23:50:00,12.1,3.2,30.66,WNW,288,2.0,4.0,67,0.00,,,0.00,Wunderground v.1.15,2013-11-24 05:50:00,